When you browse on this site, cookies collect data to enhance your experience and personalize the content and advertising you see.
Visit our Privacy Policy to learn more. By continuing to use the site, you agree to this use of cookies and data.
  • In United Kingdom
  • List of Countries
  • For 7 days
  • Water Temperature
  • Weather Map
  • Weather Widgets
  • user-avatar
    Login

    Hourly Weather Mor

    Today, 22 September, Sunday

    Time Temperature Precipitation Wind Pressure Humidity
    00:00 +10°C° 0 mm 2 mps 748 mmHg 51%
    01:00 +10°C° 0 mm 2 mps 748 mmHg 52%
    02:00 +9°C° 0 mm 2 mps 748 mmHg 53%
    03:00 +9°C° 0 mm 2 mps 747 mmHg 54%
    04:00 +9°C° 0 mm 2 mps 747 mmHg 55%
    05:00 +9°C° 0 mm 2 mps 747 mmHg 53%
    06:00 +10°C° 0 mm 2 mps 747 mmHg 51%
    07:00 +11°C° 0 mm 3 mps 747 mmHg 49%
    08:00 +13°C° 0 mm 4 mps 747 mmHg 43%
    09:00 +15°C° 0 mm 4 mps 747 mmHg 38%
    10:00 +19°C° 0 mm 5 mps 746 mmHg 32%
    11:00 +20°C° 0 mm 6 mps 746 mmHg 30%
    12:00 +21°C° 0 mm 6 mps 745 mmHg 29%
    13:00 +22°C° 0 mm 6 mps 744 mmHg 27%
    14:00 +22°C° 0 mm 5 mps 744 mmHg 27%
    15:00 +22°C° 0 mm 5 mps 743 mmHg 27%
    16:00 +22°C° 0 mm 5 mps 743 mmHg 28%
    17:00 +21°C° 0 mm 4 mps 743 mmHg 31%
    18:00 +19°C° 0 mm 3 mps 742 mmHg 35%
    19:00 +17°C° 0 mm 3 mps 742 mmHg 39%
    20:00 +17°C° 0 mm 3 mps 742 mmHg 40%
    21:00 +17°C° 0 mm 3 mps 742 mmHg 41%
    22:00 +17°C° 0 mm 3 mps 742 mmHg 42%
    23:00 +17°C° 0 mm 3 mps 742 mmHg 43%

    Tomorrow, 23 September, Monday

    Time Temperature Precipitation Wind Pressure Humidity
    00:00 +17°C° 0 mm 3 mps 741 mmHg 45%
    01:00 +17°C° 0 mm 3 mps 741 mmHg 46%
    02:00 +16°C° 0 mm 3 mps 741 mmHg 48%
    03:00 +16°C° 0 mm 3 mps 741 mmHg 50%
    04:00 +16°C° 0 mm 2 mps 741 mmHg 52%
    05:00 +17°C° 0 mm 3 mps 741 mmHg 51%
    06:00 +17°C° 0 mm 3 mps 741 mmHg 49%
    07:00 +17°C° 0 mm 3 mps 741 mmHg 48%
    08:00 +18°C° 0 mm 4 mps 741 mmHg 50%
    09:00 +19°C° 0 mm 4 mps 741 mmHg 52%
    10:00 +20°C° 0 mm 5 mps 742 mmHg 54%
    11:00 +20°C° 0 mm 5 mps 742 mmHg 53%
    12:00 +21°C° 0 mm 5 mps 742 mmHg 53%
    13:00 +21°C° 0 mm 5 mps 741 mmHg 53%
    14:00 +21°C° 0 mm 5 mps 741 mmHg 56%
    15:00 +20°C° 0 mm 5 mps 741 mmHg 59%
    16:00 +19°C° 0 mm 5 mps 741 mmHg 61%
    17:00 +18°C° 0 mm 4 mps 741 mmHg 70%
    18:00 +16°C° 0 mm 3 mps 741 mmHg 78%
    19:00 +13°C° 0 mm 3 mps 742 mmHg 86%
    20:00 +15°C° 0 mm 2 mps 742 mmHg 86%
    21:00 +15°C° 0 mm 1 mps 742 mmHg 85%
    22:00 +15°C° 0 mm 1 mps 742 mmHg 85%
    23:00 +15°C° 0 mm 1 mps 742 mmHg 85%

    Day after tomorrow, 24 September, Tuesday

    Time Temperature Precipitation Wind Pressure Humidity
    00:00 +15°C° 0 mm 2 mps 742 mmHg 84%
    01:00 +15°C° 0 mm 2 mps 742 mmHg 84%
    02:00 +15°C° 0 mm 2 mps 742 mmHg 85%
    03:00 +14°C° 0 mm 2 mps 742 mmHg 86%
    04:00 +13°C° 0 mm 3 mps 742 mmHg 86%
    05:00 +13°C° 0 mm 3 mps 742 mmHg 86%
    06:00 +14°C° 0 mm 3 mps 742 mmHg 85%
    07:00 +14°C° 0 mm 3 mps 742 mmHg 85%
    08:00 +16°C° 0 mm 3 mps 742 mmHg 79%
    09:00 +17°C° 0 mm 3 mps 742 mmHg 74%
    10:00 +18°C° 0 mm 2 mps 742 mmHg 69%
    11:00 +19°C° 0 mm 2 mps 742 mmHg 62%
    12:00 +21°C° 0 mm 1 mps 741 mmHg 55%
    13:00 +23°C° 0 mm 1 mps 741 mmHg 47%
    14:00 +23°C° 0 mm 1 mps 741 mmHg 46%
    15:00 +23°C° 0 mm 1 mps 740 mmHg 45%
    16:00 +23°C° 0 mm 1 mps 740 mmHg 44%
    17:00 +21°C° 0 mm 1 mps 740 mmHg 49%
    18:00 +19°C° 0 mm 1 mps 740 mmHg 55%
    19:00 +18°C° 0 mm 1 mps 740 mmHg 60%
    20:00 +16°C° 0 mm 1 mps 740 mmHg 61%
    21:00 +16°C° 0 mm 1 mps 740 mmHg 62%
    22:00 +16°C° 0 mm 1 mps 740 mmHg 63%
    23:00 +15°C° 0 mm 1 mps 739 mmHg 65%

    25 September, Wednesday

    Time Temperature Precipitation Wind Pressure Humidity
    00:00 +15°C° 0 mm 1 mps 739 mmHg 68%
    01:00 +14°C° 0 mm 1 mps 739 mmHg 71%
    02:00 +14°C° 0 mm 1 mps 739 mmHg 73%
    03:00 +14°C° 0 mm 1 mps 739 mmHg 76%
    04:00 +13°C° 0 mm 0 mps 739 mmHg 78%
    05:00 +14°C° 0 mm 1 mps 739 mmHg 77%
    06:00 +15°C° 0 mm 1 mps 739 mmHg 75%
    07:00 +15°C° 0 mm 1 mps 739 mmHg 74%
    08:00 +18°C° 0 mm 1 mps 739 mmHg 68%
    09:00 +20°C° 0 mm 1 mps 739 mmHg 61%
    10:00 +22°C° 0 mm 1 mps 740 mmHg 54%
    11:00 +23°C° 0 mm 2 mps 739 mmHg 51%
    12:00 +23°C° 0 mm 2 mps 739 mmHg 48%
    13:00 +24°C° 0 mm 2 mps 738 mmHg 45%
    14:00 +24°C° 0 mm 2 mps 738 mmHg 46%
    15:00 +24°C° 0 mm 2 mps 738 mmHg 46%
    16:00 +23°C° 0 mm 2 mps 738 mmHg 47%
    17:00 +21°C° 0.1 mm 3 mps 738 mmHg 51%
    18:00 +20°C° 0.1 mm 4 mps 739 mmHg 55%
    19:00 +17°C° 0.1 mm 5 mps 739 mmHg 59%
    20:00 +16°C° 0.3 mm 5 mps 739 mmHg 64%
    21:00 +15°C° 0.3 mm 5 mps 740 mmHg 69%
    22:00 +14°C° 0.3 mm 5 mps 740 mmHg 74%
    23:00 +14°C° 0.8 mm 5 mps 740 mmHg 79%

    26 September, Thursday

    Time Temperature Precipitation Wind Pressure Humidity
    00:00 +13°C° 0.8 mm 5 mps 740 mmHg 83%
    01:00 +13°C° 0.8 mm 5 mps 740 mmHg 87%
    02:00 +13°C° 0.2 mm 5 mps 740 mmHg 86%
    03:00 +13°C° 0.2 mm 4 mps 741 mmHg 84%
    04:00 +13°C° 0.2 mm 4 mps 741 mmHg 82%
    05:00 +13°C° 0 mm 4 mps 741 mmHg 80%
    06:00 +13°C° 0 mm 4 mps 741 mmHg 79%
    07:00 +13°C° 0 mm 5 mps 742 mmHg 77%
    08:00 +15°C° 0 mm 5 mps 742 mmHg 70%
    09:00 +16°C° 0 mm 6 mps 742 mmHg 64%
    10:00 +19°C° 0 mm 6 mps 743 mmHg 58%
    11:00 +20°C° 0 mm 6 mps 743 mmHg 53%
    12:00 +21°C° 0 mm 6 mps 742 mmHg 48%
    13:00 +22°C° 0 mm 6 mps 742 mmHg 43%
    14:00 +22°C° 0 mm 6 mps 742 mmHg 43%
    15:00 +21°C° 0 mm 5 mps 742 mmHg 44%
    16:00 +21°C° 0 mm 5 mps 742 mmHg 44%
    17:00 +19°C° 0 mm 4 mps 742 mmHg 50%
    18:00 +18°C° 0 mm 3 mps 742 mmHg 56%
    19:00 +16°C° 0 mm 2 mps 743 mmHg 63%
    20:00 +16°C° 0 mm 2 mps 743 mmHg 65%
    21:00 +15°C° 0 mm 2 mps 743 mmHg 67%
    22:00 +15°C° 0 mm 2 mps 743 mmHg 69%
    23:00 +14°C° 0 mm 2 mps 743 mmHg 71%

    27 September, Friday

    Time Temperature Precipitation Wind Pressure Humidity
    00:00 +14°C° 0 mm 2 mps 743 mmHg 73%
    01:00 +14°C° 0 mm 1 mps 743 mmHg 75%
    02:00 +14°C° 0 mm 1 mps 743 mmHg 76%
    03:00 +14°C° 0 mm 1 mps 743 mmHg 78%
    04:00 +14°C° 0 mm 1 mps 743 mmHg 79%
    05:00 +14°C° 0 mm 1 mps 743 mmHg 76%
    06:00 +15°C° 0 mm 1 mps 743 mmHg 74%
    07:00 +15°C° 0 mm 1 mps 743 mmHg 71%
    08:00 +18°C° 0 mm 2 mps 744 mmHg 63%
    09:00 +20°C° 0 mm 2 mps 744 mmHg 55%
    10:00 +22°C° 0 mm 3 mps 744 mmHg 46%
    11:00 +24°C° 0 mm 3 mps 744 mmHg 43%
    12:00 +23°C° 0 mm 4 mps 744 mmHg 40%
    13:00 +25°C° 0 mm 4 mps 743 mmHg 38%
    14:00 +25°C° 0 mm 4 mps 743 mmHg 39%
    15:00 +25°C° 0 mm 3 mps 743 mmHg 40%
    16:00 +24°C° 0 mm 3 mps 743 mmHg 41%
    17:00 +23°C° 0 mm 2 mps 743 mmHg 44%
    18:00 +21°C° 0 mm 2 mps 743 mmHg 48%
    19:00 +20°C° 0 mm 1 mps 743 mmHg 52%
    20:00 +19°C° 0 mm 2 mps 743 mmHg 55%
    21:00 +18°C° 0 mm 2 mps 743 mmHg 57%
    22:00 +17°C° 0 mm 2 mps 743 mmHg 60%
    23:00 +17°C° 0 mm 2 mps 743 mmHg 62%
    Show more